Time,TemperatureF,DewpointF,PressureIn,WindDirection,WindDirectionDegrees,WindSpeedMPH,WindSpeedGustMPH,Humidity,HourlyPrecipIn,Conditions,Clouds,dailyrainin,SoftwareType,DateUTC
2013-08-10 00:04:00,71.2,62.5,29.35,NW,320,0.0,0.0,74,0.00,SCT,,0.00,WeatherDisplay:10.37,2013-08-10 05:04:00,
2013-08-10 00:09:00,71.2,62.5,29.35,NW,320,0.0,0.0,74,0.00,SCT,,0.00,WeatherDisplay:10.37,2013-08-10 05:09:00,
2013-08-10 00:14:00,71.1,62.4,29.35,NW,320,0.0,0.0,74,0.00,SCT,,0.00,WeatherDisplay:10.37,2013-08-10 05:14:00,
2013-08-10 00:19:00,71.2,62.5,29.35,NW,320,0.0,0.0,74,0.00,SCT,,0.00,WeatherDisplay:10.37,2013-08-10 05:19:00,
2013-08-10 00:24:00,71.2,62.9,29.35,NW,320,0.0,0.0,75,0.00,SCT,,0.00,WeatherDisplay:10.37,2013-08-10 05:24:00,
2013-08-10 00:29:00,71.2,62.9,29.35,NW,320,0.0,0.0,75,0.00,SCT,,0.00,WeatherDisplay:10.37,2013-08-10 05:29:00,
2013-08-10 00:39:00,71.2,62.9,29.35,NW,320,0.0,0.0,75,0.00,CLR,,0.00,WeatherDisplay:10.37,2013-08-10 05:39:00,
2013-08-10 00:44:00,71.1,62.4,29.35,NW,320,0.0,0.0,74,0.00,CLR,,0.00,WeatherDisplay:10.37,2013-08-10 05:44:00,
2013-08-10 00:49:00,70.9,62.6,29.35,NW,320,0.0,0.0,75,0.00,CLR,,0.00,WeatherDisplay:10.37,2013-08-10 05:49:00,
2013-08-10 00:54:00,70.9,62.6,29.35,NW,320,0.0,0.0,75,0.00,CLR,,0.00,WeatherDisplay:10.37,2013-08-10 05:54:00,
2013-08-10 00:59:00,71.1,62.7,29.35,NW,320,0.0,0.0,75,0.00,CLR,,0.00,WeatherDisplay:10.37,2013-08-10 05:59:00,
2013-08-10 01:04:00,70.9,62.6,29.35,NW,320,0.0,0.0,75,0.00,CLR,,0.00,WeatherDisplay:10.37,2013-08-10 06:04:00,
2013-08-10 01:09:00,71.2,62.9,29.35,NW,313,0.0,0.0,75,0.00,CLR,,0.00,WeatherDisplay:10.37,2013-08-10 06:09:00,
2013-08-10 01:14:00,70.9,62.6,29.35,West,280,0.0,0.0,75,0.00,CLR,,0.00,WeatherDisplay:10.37,2013-08-10 06:14:00,
2013-08-10 01:19:00,70.7,62.4,29.35,West,270,0.0,0.0,75,0.00,CLR,,0.00,WeatherDisplay:10.37,2013-08-10 06:19:00,
2013-08-10 01:24:00,70.7,62.4,29.35,West,270,0.0,0.0,75,0.00,CLR,,0.00,WeatherDisplay:10.37,2013-08-10 06:24:00,
2013-08-10 01:29:00,70.7,62.4,29.35,West,270,0.0,0.0,75,0.00,CLR,,0.00,WeatherDisplay:10.37,2013-08-10 06:29:00,
2013-08-10 01:34:00,70.9,62.9,29.35,West,270,0.0,0.0,76,0.00,CLR,,0.00,WeatherDisplay:10.37,2013-08-10 06:34:00,
2013-08-10 01:39:00,71.2,63.3,29.35,West,270,0.0,0.0,76,0.00,CLR,,0.00,WeatherDisplay:10.37,2013-08-10 06:39:00,
2013-08-10 01:44:00,71.1,63.1,29.35,West,270,0.0,0.0,76,0.00,CLR,,0.00,WeatherDisplay:10.37,2013-08-10 06:44:00,
2013-08-10 01:49:00,71.1,63.1,29.35,West,270,0.0,0.0,76,0.00,CLR,,0.00,WeatherDisplay:10.37,2013-08-10 06:49:00,
2013-08-10 01:54:00,70.9,62.9,29.35,West,270,0.0,0.0,76,0.00,CLR,,0.00,WeatherDisplay:10.37,2013-08-10 06:54:00,
2013-08-10 01:59:00,70.7,62.8,29.35,West,270,0.0,0.0,76,0.00,CLR,,0.00,WeatherDisplay:10.37,2013-08-10 06:59:00,
2013-08-10 02:04:00,70.9,62.9,29.35,West,270,0.0,0.0,76,0.00,CLR,,0.00,WeatherDisplay:10.37,2013-08-10 07:04:00,
2013-08-10 02:09:00,71.1,63.1,29.35,West,270,0.0,0.0,76,0.00,CLR,,0.00,WeatherDisplay:10.37,2013-08-10 07:09:00,
2013-08-10 02:14:00,71.1,63.1,29.35,West,270,0.0,0.0,76,0.00,CLR,,0.00,WeatherDisplay:10.37,2013-08-10 07:14:00,
2013-08-10 02:19:00,71.1,63.1,29.35,West,270,0.0,0.0,76,0.00,CLR,,0.00,WeatherDisplay:10.37,2013-08-10 07:19:00,
2013-08-10 02:24:00,71.1,63.1,29.35,West,270,0.0,0.0,76,0.00,CLR,,0.00,WeatherDisplay:10.37,2013-08-10 07:24:00,
2013-08-10 02:29:00,71.2,63.3,29.35,West,270,0.0,0.0,76,0.00,CLR,,0.00,WeatherDisplay:10.37,2013-08-10 07:29:00,
2013-08-10 02:34:00,71.2,63.3,29.35,West,270,0.0,0.0,76,0.00,BKN,,0.00,WeatherDisplay:10.37,2013-08-10 07:34:00,
2013-08-10 02:39:00,71.2,63.3,29.35,WNW,282,0.0,0.0,76,0.00,BKN,,0.00,WeatherDisplay:10.37,2013-08-10 07:39:00,
2013-08-10 02:44:00,71.2,63.3,29.35,WNW,303,0.0,0.0,76,0.00,BKN,,0.00,WeatherDisplay:10.37,2013-08-10 07:44:00,
2013-08-10 02:49:00,71.4,63.1,29.35,NW,304,0.0,0.0,75,0.00,SCT,,0.00,WeatherDisplay:10.37,2013-08-10 07:49:00,
2013-08-10 02:54:00,71.4,63.1,29.35,NW,315,0.0,0.0,75,0.00,SCT,,0.00,WeatherDisplay:10.37,2013-08-10 07:54:00,
2013-08-10 02:59:00,71.6,62.9,29.35,NNW,330,0.0,0.0,74,0.00,SCT,,0.00,WeatherDisplay:10.37,2013-08-10 07:59:00,
2013-08-10 03:04:00,71.6,62.9,29.35,NNW,330,0.0,0.0,74,0.00,SCT,,0.00,WeatherDisplay:10.37,2013-08-10 08:04:00,
2013-08-10 03:09:00,71.6,62.9,29.35,NNW,330,0.0,0.0,74,0.00,SCT,,0.00,WeatherDisplay:10.37,2013-08-10 08:09:00,
2013-08-10 03:14:00,71.6,62.9,29.35,NNW,330,0.0,0.0,74,0.00,SCT,,0.00,WeatherDisplay:10.37,2013-08-10 08:14:00,
2013-08-10 03:19:00,71.6,62.9,29.35,NNW,330,0.0,0.0,74,0.00,SCT,,0.00,WeatherDisplay:10.37,2013-08-10 08:19:00,
2013-08-10 03:24:00,71.6,62.9,29.35,NNW,330,0.0,0.0,74,0.00,SCT,,0.00,WeatherDisplay:10.37,2013-08-10 08:24:00,
2013-08-10 03:29:00,72.0,63.2,29.35,NNW,330,0.0,0.0,74,0.00,SCT,,0.00,WeatherDisplay:10.37,2013-08-10 08:29:00,
2013-08-10 03:34:00,72.0,62.8,29.35,NNW,330,0.0,0.0,73,0.00,SCT,,0.00,WeatherDisplay:10.37,2013-08-10 08:34:00,
2013-08-10 03:39:00,72.1,63.0,29.35,NNW,330,0.0,0.0,73,0.00,SCT,,0.00,WeatherDisplay:10.37,2013-08-10 08:39:00,
2013-08-10 03:44:00,72.0,62.8,29.38,NW,326,0.0,0.0,73,0.00,SCT,,0.00,WeatherDisplay:10.37,2013-08-10 08:44:00,
2013-08-10 03:49:00,72.0,62.4,29.38,NNW,329,0.0,0.0,72,0.00,CLR,,0.00,WeatherDisplay:10.37,2013-08-10 08:49:00,
2013-08-10 03:54:00,72.0,62.4,29.38,NNW,334,0.0,0.0,72,0.00,CLR,,0.00,WeatherDisplay:10.37,2013-08-10 08:54:00,
2013-08-10 03:59:00,71.8,62.3,29.35,NNW,335,0.0,0.0,72,0.00,CLR,,0.00,WeatherDisplay:10.37,2013-08-10 08:59:00,
2013-08-10 04:04:00,71.8,62.3,29.35,NNW,335,0.0,0.0,72,0.00,CLR,,0.00,WeatherDisplay:10.37,2013-08-10 09:04:00,
2013-08-10 04:09:00,71.6,61.7,29.35,NNW,335,0.0,0.0,71,0.00,CLR,,0.00,WeatherDisplay:10.37,2013-08-10 09:09:00,
2013-08-10 04:14:00,71.6,62.1,29.35,NNW,333,0.0,0.0,72,0.00,CLR,,0.00,WeatherDisplay:10.37,2013-08-10 09:14:00,
2013-08-10 04:19:00,71.2,62.1,29.35,NNW,330,0.0,0.0,73,0.00,CLR,,0.00,WeatherDisplay:10.37,2013-08-10 09:19:00,
2013-08-10 04:24:00,71.2,62.1,29.38,NNW,330,0.0,0.0,73,0.00,CLR,,0.00,WeatherDisplay:10.37,2013-08-10 09:24:00,
2013-08-10 04:29:00,71.2,62.1,29.35,NNW,330,0.0,0.0,73,0.00,CLR,,0.00,WeatherDisplay:10.37,2013-08-10 09:29:00,
2013-08-10 04:34:00,71.1,62.0,29.35,NNW,330,0.0,0.0,73,0.00,CLR,,0.00,WeatherDisplay:10.37,2013-08-10 09:34:00,
2013-08-10 04:39:00,70.9,61.8,29.35,NNW,330,0.0,0.0,73,0.00,CLR,,0.00,WeatherDisplay:10.37,2013-08-10 09:39:00,
2013-08-10 04:49:00,70.7,62.0,29.35,NNW,330,0.0,0.0,74,0.00,CLR,,0.00,WeatherDisplay:10.37,2013-08-10 09:49:00,
2013-08-10 04:54:00,70.5,62.2,29.35,NNW,330,0.0,0.0,75,0.00,CLR,,0.00,WeatherDisplay:10.37,2013-08-10 09:54:00,
2013-08-10 04:59:00,70.5,62.2,29.35,NW,326,0.0,0.0,75,0.00,CLR,,0.00,WeatherDisplay:10.37,2013-08-10 09:59:00,
2013-08-10 05:04:00,70.5,62.2,29.35,NW,311,0.0,0.0,75,0.00,CLR,,0.00,WeatherDisplay:10.37,2013-08-10 10:04:00,
2013-08-10 05:09:00,70.5,62.2,29.35,NW,310,0.0,0.0,75,0.00,CLR,,0.00,WeatherDisplay:10.37,2013-08-10 10:09:00,
2013-08-10 05:19:00,69.6,61.7,29.35,NW,310,0.0,0.0,76,0.00,CLR,,0.00,WeatherDisplay:10.37,2013-08-10 10:19:00,
2013-08-10 05:24:00,69.6,61.7,29.35,NW,310,0.0,0.0,76,0.00,CLR,,0.00,WeatherDisplay:10.37,2013-08-10 10:24:00,
2013-08-10 05:29:00,69.4,61.5,29.35,NW,310,0.0,0.0,76,0.00,CLR,,0.00,WeatherDisplay:10.37,2013-08-10 10:29:00,
2013-08-10 05:34:00,69.3,61.7,29.35,NW,310,0.0,0.0,77,0.00,CLR,,0.00,WeatherDisplay:10.37,2013-08-10 10:34:00,
2013-08-10 05:39:00,69.4,61.9,29.35,NW,310,0.0,0.0,77,0.00,CLR,,0.00,WeatherDisplay:10.37,2013-08-10 10:39:00,
2013-08-10 05:44:00,69.4,62.3,29.35,NW,310,0.0,0.0,78,0.00,CLR,,0.00,WeatherDisplay:10.37,2013-08-10 10:44:00,
2013-08-10 05:49:00,69.4,62.6,29.35,NW,310,0.0,0.0,79,0.00,CLR,,0.00,WeatherDisplay:10.37,2013-08-10 10:49:00,
2013-08-10 05:54:00,69.8,63.0,29.35,NW,311,0.0,0.0,79,0.00,CLR,,0.00,WeatherDisplay:10.37,2013-08-10 10:54:00,
2013-08-10 05:59:00,70.5,63.7,29.35,NNW,335,0.0,0.0,79,0.00,CLR,,0.00,WeatherDisplay:10.37,2013-08-10 10:59:00,
2013-08-10 06:04:00,70.5,63.3,29.35,NNW,337,0.0,0.0,78,0.00,CLR,,0.00,WeatherDisplay:10.37,2013-08-10 11:04:00,
2013-08-10 06:09:00,70.5,63.3,29.35,NNW,336,0.0,1.0,78,0.00,CLR,,0.00,WeatherDisplay:10.37,2013-08-10 11:09:00,
2013-08-10 06:14:00,70.3,62.8,29.35,NNW,337,1.0,1.0,77,0.00,CLR,,0.00,WeatherDisplay:10.37,2013-08-10 11:14:00,
2013-08-10 06:19:00,70.2,62.6,29.35,NNW,339,1.0,1.0,77,0.00,CLR,,0.00,WeatherDisplay:10.37,2013-08-10 11:19:00,
2013-08-10 06:20:00,81.5,59.3,29.35,NNW,343,2.0,3.0,47,0.00,CLR,,0.00,WeatherDisplay:10.37,2013-08-10 11:20:00,
2013-08-10 06:24:00,70.2,62.6,29.35,NNW,335,1.0,1.0,77,0.00,CLR,,0.00,WeatherDisplay:10.37,2013-08-10 11:24:00,
2013-08-10 06:29:00,69.8,62.3,29.38,NNW,334,1.0,1.0,77,0.00,CLR,,0.00,WeatherDisplay:10.37,2013-08-10 11:29:00,
2013-08-10 06:34:00,69.4,62.3,29.38,NNW,344,0.0,1.0,78,0.00,CLR,,0.00,WeatherDisplay:10.37,2013-08-10 11:34:00,
2013-08-10 06:39:00,69.4,62.3,29.38,NNW,343,0.0,1.0,78,0.00,CLR,,0.00,WeatherDisplay:10.37,2013-08-10 11:39:00,
2013-08-10 06:44:00,69.4,62.3,29.38,NNW,348,0.0,0.0,78,0.00,CLR,,0.00,WeatherDisplay:10.37,2013-08-10 11:44:00,
2013-08-10 06:49:00,69.3,62.1,29.38,North,353,0.0,0.0,78,0.00,CLR,,0.00,WeatherDisplay:10.37,2013-08-10 11:49:00,
2013-08-10 06:54:00,69.3,62.1,29.38,NNW,347,0.0,0.0,78,0.00,CLR,,0.00,WeatherDisplay:10.37,2013-08-10 11:54:00,
2013-08-10 06:59:00,69.4,62.3,29.38,NNW,340,0.0,0.0,78,0.00,CLR,,0.00,WeatherDisplay:10.37,2013-08-10 11:59:00,
2013-08-10 07:04:00,69.4,62.3,29.38,NNW,340,0.0,0.0,78,0.00,CLR,,0.00,WeatherDisplay:10.37,2013-08-10 12:04:00,
2013-08-10 07:09:00,69.6,62.5,29.38,NNW,340,0.0,0.0,78,0.00,CLR,,0.00,WeatherDisplay:10.37,2013-08-10 12:09:00,
2013-08-10 07:14:00,70.0,62.4,29.38,NNW,336,0.0,0.0,77,0.00,CLR,,0.00,WeatherDisplay:10.37,2013-08-10 12:14:00,
2013-08-10 07:19:00,70.2,62.6,29.38,NNW,334,0.0,0.0,77,0.00,CLR,,0.00,WeatherDisplay:10.37,2013-08-10 12:19:00,
2013-08-10 07:24:00,70.3,62.8,29.38,NNW,332,0.0,0.0,77,0.00,CLR,,0.00,WeatherDisplay:10.37,2013-08-10 12:24:00,
2013-08-10 07:29:00,70.7,62.8,29.38,NNW,336,0.0,0.0,76,0.00,CLR,,0.00,WeatherDisplay:10.37,2013-08-10 12:29:00,
2013-08-10 07:34:00,70.7,62.4,29.38,North,349,0.0,0.0,75,0.00,CLR,,0.00,WeatherDisplay:10.37,2013-08-10 12:34:00,
2013-08-10 07:39:00,70.7,62.4,29.38,North,356,0.0,0.0,75,0.00,CLR,,0.00,WeatherDisplay:10.37,2013-08-10 12:39:00,
2013-08-10 07:44:00,71.1,62.7,29.38,North,349,0.0,0.0,75,0.00,CLR,,0.00,WeatherDisplay:10.37,2013-08-10 12:44:00,
2013-08-10 07:49:00,71.4,62.7,29.38,NNW,344,0.0,0.0,74,0.00,CLR,,0.00,WeatherDisplay:10.37,2013-08-10 12:49:00,
2013-08-10 07:54:00,71.4,62.7,29.38,North,349,0.0,0.0,74,0.00,CLR,,0.00,WeatherDisplay:10.37,2013-08-10 12:54:00,
2013-08-10 07:59:00,71.4,62.3,29.38,NNW,344,1.0,1.0,73,0.00,CLR,,0.00,WeatherDisplay:10.37,2013-08-10 12:59:00,
2013-08-10 08:04:00,72.3,62.8,29.38,NNW,344,1.0,1.0,72,0.00,CLR,,0.00,WeatherDisplay:10.37,2013-08-10 13:04:00,
2013-08-10 08:09:00,72.5,63.0,29.38,North,349,0.0,1.0,72,0.00,CLR,,0.00,WeatherDisplay:10.37,2013-08-10 13:09:00,
2013-08-10 08:14:00,72.7,63.1,29.38,NNW,343,0.0,1.0,72,0.00,CLR,,0.00,WeatherDisplay:10.37,2013-08-10 13:14:00,
2013-08-10 08:19:00,73.2,62.8,29.38,NNW,345,1.0,1.0,70,0.00,CLR,,0.00,WeatherDisplay:10.37,2013-08-10 13:19:00,
2013-08-10 08:24:00,73.0,62.3,29.38,NNW,343,0.0,1.0,69,0.00,CLR,,0.00,WeatherDisplay:10.37,2013-08-10 13:24:00,
2013-08-10 08:29:00,73.0,62.3,29.38,NNW,347,0.0,1.0,69,0.00,CLR,,0.00,WeatherDisplay:10.37,2013-08-10 13:29:00,
2013-08-10 08:34:00,73.8,62.5,29.41,NNW,346,1.0,1.0,68,0.00,CLR,,0.00,WeatherDisplay:10.37,2013-08-10 13:34:00,
2013-08-10 08:39:00,73.9,62.3,29.41,North,351,1.0,1.0,67,0.00,CLR,,0.00,WeatherDisplay:10.37,2013-08-10 13:39:00,
2013-08-10 08:44:00,74.5,62.8,29.41,North,359,1.0,1.0,67,0.00,CLR,,0.00,WeatherDisplay:10.37,2013-08-10 13:44:00,
2013-08-10 08:49:00,75.0,62.9,29.41,North,355,1.0,1.0,66,0.00,CLR,,0.00,WeatherDisplay:10.37,2013-08-10 13:49:00,
2013-08-10 08:54:00,74.3,61.3,29.41,North,357,0.0,1.0,64,0.00,CLR,,0.00,WeatherDisplay:10.37,2013-08-10 13:54:00,
2013-08-10 08:59:00,75.2,62.2,29.41,North,359,1.0,1.0,64,0.00,CLR,,0.00,WeatherDisplay:10.37,2013-08-10 13:59:00,
2013-08-10 09:04:00,75.4,61.9,29.41,North,358,1.0,1.0,63,0.00,CLR,,0.00,WeatherDisplay:10.37,2013-08-10 14:04:00,
2013-08-10 09:09:00,75.4,61.5,29.41,North,9,1.0,2.0,62,0.00,CLR,,0.00,WeatherDisplay:10.37,2013-08-10 14:09:00,
2013-08-10 09:14:00,75.7,61.8,29.41,North,7,2.0,2.0,62,0.00,CLR,,0.00,WeatherDisplay:10.37,2013-08-10 14:14:00,
2013-08-10 09:19:00,76.1,62.1,29.41,North,9,2.0,3.0,62,0.00,CLR,,0.00,WeatherDisplay:10.37,2013-08-10 14:19:00,
2013-08-10 09:24:00,76.1,61.7,29.41,NNE,12,3.0,3.0,61,0.00,CLR,,0.00,WeatherDisplay:10.37,2013-08-10 14:24:00,
2013-08-10 09:29:00,75.9,61.0,29.41,North,7,3.0,3.0,60,0.00,CLR,,0.00,WeatherDisplay:10.37,2013-08-10 14:29:00,
2013-08-10 09:34:00,76.3,61.8,29.41,North,357,3.0,3.0,61,0.00,CLR,,0.00,WeatherDisplay:10.37,2013-08-10 14:34:00,
2013-08-10 09:39:00,76.3,61.8,29.41,North,360,3.0,3.0,61,0.00,CLR,,0.00,WeatherDisplay:10.37,2013-08-10 14:39:00,
2013-08-10 09:44:00,76.3,61.8,29.41,North,3,3.0,3.0,61,0.00,CLR,,0.00,WeatherDisplay:10.37,2013-08-10 14:44:00,
2013-08-10 09:49:00,76.8,62.3,29.41,NNW,347,3.0,3.0,61,0.00,CLR,,0.00,WeatherDisplay:10.37,2013-08-10 14:49:00,
2013-08-10 09:54:00,76.8,62.3,29.41,North,349,3.0,4.0,61,0.00,CLR,,0.00,WeatherDisplay:10.37,2013-08-10 14:54:00,
2013-08-10 09:59:00,76.5,61.1,29.41,NNW,340,3.0,4.0,59,0.00,CLR,,0.00,WeatherDisplay:10.37,2013-08-10 14:59:00,
2013-08-10 10:04:00,77.4,62.4,29.41,NNW,343,3.0,4.0,60,0.00,CLR,,0.00,WeatherDisplay:10.37,2013-08-10 15:04:00,
2013-08-10 10:09:00,77.2,61.7,29.41,NNW,343,3.0,4.0,59,0.00,CLR,,0.00,WeatherDisplay:10.37,2013-08-10 15:09:00,
2013-08-10 10:14:00,77.7,62.2,29.41,NNW,330,3.0,4.0,59,0.00,CLR,,0.00,WeatherDisplay:10.37,2013-08-10 15:14:00,
2013-08-10 10:19:00,77.5,62.1,29.41,NW,313,3.0,4.0,59,0.00,CLR,,0.00,WeatherDisplay:10.37,2013-08-10 15:19:00,
2013-08-10 10:24:00,76.6,61.2,29.41,NW,317,3.0,3.0,59,0.00,CLR,,0.00,WeatherDisplay:10.37,2013-08-10 15:24:00,
2013-08-10 10:29:00,77.9,62.4,29.41,NNW,338,3.0,3.0,59,0.00,CLR,,0.00,WeatherDisplay:10.37,2013-08-10 15:29:00,
2013-08-10 10:34:00,78.3,61.8,29.41,NNW,346,3.0,3.0,57,0.00,CLR,,0.00,WeatherDisplay:10.37,2013-08-10 15:34:00,
2013-08-10 10:39:00,78.3,61.8,29.41,NNW,336,3.0,3.0,57,0.00,CLR,,0.00,WeatherDisplay:10.37,2013-08-10 15:39:00,
2013-08-10 10:44:00,78.6,62.1,29.41,NNW,334,2.0,3.0,57,0.00,CLR,,0.00,WeatherDisplay:10.37,2013-08-10 15:44:00,
2013-08-10 10:49:00,78.6,62.1,29.41,NW,323,2.0,3.0,57,0.00,CLR,,0.00,WeatherDisplay:10.37,2013-08-10 15:49:00,
2013-08-10 10:54:00,78.8,61.3,29.41,NW,324,2.0,3.0,55,0.00,CLR,,0.00,WeatherDisplay:10.37,2013-08-10 15:54:00,
2013-08-10 10:59:00,78.8,60.7,29.41,NNW,341,2.0,2.0,54,0.00,CLR,,0.00,WeatherDisplay:10.37,2013-08-10 15:59:00,
2013-08-10 11:04:00,79.0,60.9,29.41,NNW,335,2.0,2.0,54,0.00,CLR,,0.00,WeatherDisplay:10.37,2013-08-10 16:04:00,
2013-08-10 11:09:00,79.5,60.9,29.41,NNW,335,1.0,2.0,53,0.00,CLR,,0.00,WeatherDisplay:10.37,2013-08-10 16:09:00,
2013-08-10 11:14:00,79.3,60.2,29.41,NNW,341,1.0,2.0,52,0.00,CLR,,0.00,WeatherDisplay:10.37,2013-08-10 16:14:00,
2013-08-10 11:19:00,79.7,60.5,29.41,NNE,13,2.0,2.0,52,0.00,CLR,,0.00,WeatherDisplay:10.37,2013-08-10 16:19:00,
2013-08-10 11:24:00,79.5,60.4,29.41,NNE,20,2.0,3.0,52,0.00,CLR,,0.00,WeatherDisplay:10.37,2013-08-10 16:24:00,
2013-08-10 11:29:00,79.7,60.5,29.41,NNE,32,3.0,3.0,52,0.00,CLR,,0.00,WeatherDisplay:10.37,2013-08-10 16:29:00,
2013-08-10 11:34:00,79.9,60.1,29.41,NNE,20,3.0,4.0,51,0.00,CLR,,0.00,WeatherDisplay:10.37,2013-08-10 16:34:00,
2013-08-10 11:39:00,79.9,60.1,29.41,North,3,3.0,4.0,51,0.00,CLR,,0.00,WeatherDisplay:10.37,2013-08-10 16:39:00,
2013-08-10 11:44:00,80.4,61.2,29.41,North,357,5.0,5.0,52,0.00,CLR,,0.00,WeatherDisplay:10.37,2013-08-10 16:44:00,
2013-08-10 11:49:00,80.6,60.2,29.41,NNE,17,5.0,5.0,50,0.00,CLR,,0.00,WeatherDisplay:10.37,2013-08-10 16:49:00,
2013-08-10 11:54:00,80.6,60.2,29.41,NNE,21,5.0,5.0,50,0.00,CLR,,0.00,WeatherDisplay:10.37,2013-08-10 16:54:00,
2013-08-10 11:59:00,80.4,60.1,29.41,North,354,5.0,5.0,50,0.00,CLR,,0.00,WeatherDisplay:10.37,2013-08-10 16:59:00,
2013-08-10 12:04:00,80.4,57.7,29.41,NNW,344,3.0,5.0,46,0.00,CLR,,0.00,WeatherDisplay:10.37,2013-08-10 17:04:00,
2013-08-10 12:09:00,80.4,57.7,29.41,NNW,334,3.0,4.0,46,0.00,CLR,,0.00,WeatherDisplay:10.37,2013-08-10 17:09:00,
2013-08-10 12:14:00,81.0,58.2,29.41,NW,321,3.0,4.0,46,0.00,CLR,,0.00,WeatherDisplay:10.37,2013-08-10 17:14:00,
2013-08-10 12:19:00,81.1,59.0,29.41,NW,326,3.0,4.0,47,0.00,CLR,,0.00,WeatherDisplay:10.37,2013-08-10 17:19:00,
2013-08-10 12:24:00,80.8,57.5,29.41,NNW,335,3.0,4.0,45,0.00,CLR,,0.00,WeatherDisplay:10.37,2013-08-10 17:24:00,
2013-08-10 12:29:00,81.3,59.2,29.41,NNW,332,3.0,4.0,47,0.00,CLR,,0.00,WeatherDisplay:10.37,2013-08-10 17:29:00,
2013-08-10 12:34:00,81.7,58.9,29.41,WNW,300,3.0,4.0,46,0.00,CLR,,0.00,WeatherDisplay:10.37,2013-08-10 17:34:00,
2013-08-10 12:39:00,81.9,60.2,29.41,West,280,3.0,3.0,48,0.00,CLR,,0.00,WeatherDisplay:10.37,2013-08-10 17:39:00,
2013-08-10 12:44:00,81.5,58.1,29.41,WNW,299,3.0,3.0,45,0.00,CLR,,0.00,WeatherDisplay:10.37,2013-08-10 17:44:00,
2013-08-10 12:49:00,81.7,58.9,29.41,NNW,343,2.0,3.0,46,0.00,CLR,,0.00,WeatherDisplay:10.37,2013-08-10 17:49:00,
2013-08-10 12:54:00,81.1,56.5,29.41,North,349,2.0,3.0,43,0.00,CLR,,0.00,WeatherDisplay:10.37,2013-08-10 17:54:00,
2013-08-10 12:59:00,81.1,56.5,29.41,NNW,342,2.0,3.0,43,0.00,CLR,,0.00,WeatherDisplay:10.37,2013-08-10 17:59:00,
2013-08-10 13:04:00,82.2,59.4,29.41,NNW,338,2.0,2.0,46,0.00,CLR,,0.00,WeatherDisplay:10.37,2013-08-10 18:04:00,
2013-08-10 13:09:00,82.8,59.9,29.41,North,351,2.0,2.0,46,0.00,CLR,,0.00,WeatherDisplay:10.37,2013-08-10 18:09:00,
2013-08-10 13:14:00,82.2,58.8,29.41,North,355,3.0,3.0,45,0.00,CLR,,0.00,WeatherDisplay:10.37,2013-08-10 18:14:00,
2013-08-10 13:19:00,82.2,58.1,29.41,North,355,3.0,3.0,44,0.00,CLR,,0.00,WeatherDisplay:10.37,2013-08-10 18:19:00,
2013-08-10 13:24:00,82.2,58.1,29.41,NNW,328,3.0,3.0,44,0.00,CLR,,0.00,WeatherDisplay:10.37,2013-08-10 18:24:00,
2013-08-10 13:29:00,82.6,57.8,29.41,NW,308,3.0,3.0,43,0.00,CLR,,0.00,WeatherDisplay:10.37,2013-08-10 18:29:00,
2013-08-10 13:34:00,82.6,57.8,29.41,NNW,335,2.0,3.0,43,0.00,CLR,,0.00,WeatherDisplay:10.37,2013-08-10 18:34:00,
2013-08-10 13:39:00,82.8,58.6,29.41,NNW,346,2.0,3.0,44,0.00,CLR,,0.00,WeatherDisplay:10.37,2013-08-10 18:39:00,
2013-08-10 13:44:00,83.1,60.2,29.41,North,360,2.0,3.0,46,0.00,CLR,,0.00,WeatherDisplay:10.37,2013-08-10 18:44:00,
2013-08-10 13:49:00,83.1,58.3,29.41,NNW,344,2.0,2.0,43,0.00,CLR,,0.00,WeatherDisplay:10.37,2013-08-10 18:49:00,
2013-08-10 13:54:00,83.7,56.8,29.41,NW,321,2.0,2.0,40,0.00,CLR,,0.00,WeatherDisplay:10.37,2013-08-10 18:54:00,
2013-08-10 13:59:00,84.0,58.5,29.38,NW,322,2.0,2.0,42,0.00,CLR,,0.00,WeatherDisplay:10.37,2013-08-10 18:59:00,
2013-08-10 14:04:00,83.1,57.0,29.38,NNW,329,2.0,2.0,41,0.00,CLR,,0.00,WeatherDisplay:10.37,2013-08-10 19:04:00,
2013-08-10 14:09:00,83.5,57.3,29.38,NW,324,2.0,2.0,41,0.00,CLR,,0.00,WeatherDisplay:10.37,2013-08-10 19:09:00,
2013-08-10 14:14:00,83.3,57.8,29.38,NNW,329,2.0,2.0,42,0.00,CLR,,0.00,WeatherDisplay:10.37,2013-08-10 19:14:00,
2013-08-10 14:19:00,83.3,58.5,29.38,North,356,2.0,2.0,43,0.00,CLR,,0.00,WeatherDisplay:10.37,2013-08-10 19:19:00,
2013-08-10 14:24:00,83.3,58.5,29.38,North,349,2.0,2.0,43,0.00,CLR,,0.00,WeatherDisplay:10.37,2013-08-10 19:24:00,
2013-08-10 14:29:00,83.5,59.9,29.38,NNW,339,2.0,3.0,45,0.00,CLR,,0.00,WeatherDisplay:10.37,2013-08-10 19:29:00,
2013-08-10 14:34:00,83.1,58.3,29.38,NNW,348,3.0,3.0,43,0.00,CLR,,0.00,WeatherDisplay:10.37,2013-08-10 19:34:00,
2013-08-10 14:39:00,82.8,58.6,29.38,NNW,343,3.0,3.0,44,0.00,CLR,,0.00,WeatherDisplay:10.37,2013-08-10 19:39:00,
2013-08-10 14:44:00,83.3,57.8,29.38,NNW,330,3.0,3.0,42,0.00,CLR,,0.00,WeatherDisplay:10.37,2013-08-10 19:44:00,
2013-08-10 14:49:00,83.3,58.5,29.38,NNW,343,3.0,3.0,43,0.00,CLR,,0.00,WeatherDisplay:10.37,2013-08-10 19:49:00,
2013-08-10 14:54:00,83.8,59.6,29.38,North,357,3.0,3.0,44,0.00,CLR,,0.00,WeatherDisplay:10.37,2013-08-10 19:54:00,
2013-08-10 14:59:00,83.3,58.5,29.38,NNW,333,3.0,3.0,43,0.00,CLR,,0.00,WeatherDisplay:10.37,2013-08-10 19:59:00,
2013-08-10 15:04:00,83.5,57.3,29.38,NW,322,3.0,3.0,41,0.00,CLR,,0.00,WeatherDisplay:10.37,2013-08-10 20:04:00,
2013-08-10 15:09:00,83.3,56.5,29.38,NNW,329,3.0,3.0,40,0.00,CLR,,0.00,WeatherDisplay:10.37,2013-08-10 20:09:00,
2013-08-10 15:14:00,83.8,59.0,29.38,NNW,328,3.0,3.0,43,0.00,CLR,,0.00,WeatherDisplay:10.37,2013-08-10 20:14:00,
2013-08-10 15:19:00,84.2,58.6,29.38,NNW,330,3.0,3.0,42,0.00,CLR,,0.00,WeatherDisplay:10.37,2013-08-10 20:19:00,
2013-08-10 15:24:00,84.7,59.1,29.38,NNW,338,3.0,3.0,42,0.00,CLR,,0.00,WeatherDisplay:10.37,2013-08-10 20:24:00,
2013-08-10 15:29:00,83.5,59.3,29.38,NW,324,3.0,3.0,44,0.00,CLR,,0.00,WeatherDisplay:10.37,2013-08-10 20:29:00,
2013-08-10 15:34:00,84.0,61.0,29.38,NW,311,3.0,4.0,46,0.00,CLR,,0.00,WeatherDisplay:10.37,2013-08-10 20:34:00,
2013-08-10 15:39:00,85.1,60.7,29.38,NW,308,3.0,4.0,44,0.00,CLR,,0.00,WeatherDisplay:10.37,2013-08-10 20:39:00,
2013-08-10 15:44:00,85.1,59.4,29.38,WNW,302,3.0,4.0,42,0.00,CLR,,0.00,WeatherDisplay:10.37,2013-08-10 20:44:00,
2013-08-10 15:49:00,84.4,59.4,29.38,NNW,339,3.0,4.0,43,0.00,CLR,,0.00,WeatherDisplay:10.37,2013-08-10 20:49:00,
2013-08-10 15:54:00,84.0,58.5,29.38,North,350,5.0,5.0,42,0.00,CLR,,0.00,WeatherDisplay:10.37,2013-08-10 20:54:00,
2013-08-10 15:59:00,83.5,59.3,29.38,NNW,335,3.0,4.0,44,0.00,CLR,,0.00,WeatherDisplay:10.37,2013-08-10 20:59:00,
2013-08-10 16:04:00,83.3,59.7,29.38,NNW,346,5.0,5.0,45,0.00,SCT,,0.00,WeatherDisplay:10.37,2013-08-10 21:04:00,
2013-08-10 16:09:00,83.3,59.7,29.38,NNW,341,5.0,5.0,45,0.00,SCT,,0.00,WeatherDisplay:10.37,2013-08-10 21:09:00,
2013-08-10 16:14:00,82.0,59.8,29.38,NW,322,3.0,5.0,47,0.00,SCT,,0.00,WeatherDisplay:10.37,2013-08-10 21:14:00,
2013-08-10 16:19:00,82.8,60.5,29.38,NW,312,3.0,4.0,47,0.00,SCT,,0.00,WeatherDisplay:10.37,2013-08-10 21:19:00,
2013-08-10 16:24:00,83.5,61.1,29.38,NNW,332,3.0,4.0,47,0.00,SCT,,0.00,WeatherDisplay:10.37,2013-08-10 21:24:00,
2013-08-10 16:29:00,83.3,61.0,29.35,North,351,3.0,4.0,47,0.00,SCT,,0.00,WeatherDisplay:10.37,2013-08-10 21:29:00,
2013-08-10 16:34:00,82.6,60.9,29.35,NNW,341,3.0,3.0,48,0.00,SCT,,0.00,WeatherDisplay:10.37,2013-08-10 21:34:00,
2013-08-10 16:39:00,82.0,61.6,29.35,NNW,340,3.0,3.0,50,0.00,SCT,,0.00,WeatherDisplay:10.37,2013-08-10 21:39:00,
2013-08-10 16:44:00,82.0,60.4,29.35,NNW,331,2.0,3.0,48,0.00,SCT,,0.00,WeatherDisplay:10.37,2013-08-10 21:44:00,
2013-08-10 16:49:00,82.4,60.7,29.35,NNW,339,2.0,3.0,48,0.00,SCT,,0.00,WeatherDisplay:10.37,2013-08-10 21:49:00,
2013-08-10 16:54:00,82.4,60.7,29.35,NNW,347,2.0,3.0,48,0.00,SCT,,0.00,WeatherDisplay:10.37,2013-08-10 21:54:00,
2013-08-10 16:59:00,82.9,60.6,29.35,North,353,2.0,3.0,47,0.00,SCT,,0.00,WeatherDisplay:10.37,2013-08-10 21:59:00,
2013-08-10 17:04:00,82.9,60.6,29.35,North,349,2.0,2.0,47,0.00,CLR,,0.00,WeatherDisplay:10.37,2013-08-10 22:04:00,
2013-08-10 17:09:00,82.2,61.7,29.35,NNW,340,2.0,2.0,50,0.00,CLR,,0.00,WeatherDisplay:10.37,2013-08-10 22:09:00,
2013-08-10 17:14:00,82.0,61.6,29.35,North,350,2.0,3.0,50,0.00,CLR,,0.00,WeatherDisplay:10.37,2013-08-10 22:14:00,
2013-08-10 17:24:00,80.8,58.7,29.35,NNW,341,3.0,3.0,47,0.00,CLR,,0.00,WeatherDisplay:10.37,2013-08-10 22:24:00,
2013-08-10 17:29:00,81.7,60.1,29.35,NNW,346,3.0,3.0,48,0.00,CLR,,0.00,WeatherDisplay:10.37,2013-08-10 22:29:00,
2013-08-10 17:34:00,81.3,59.8,29.35,NNW,346,3.0,3.0,48,0.00,CLR,,0.00,WeatherDisplay:10.37,2013-08-10 22:34:00,
2013-08-10 17:39:00,81.0,59.4,29.35,NNW,346,3.0,3.0,48,0.00,CLR,,0.00,WeatherDisplay:10.37,2013-08-10 22:39:00,
2013-08-10 17:44:00,81.5,60.5,29.35,NNW,343,3.0,3.0,49,0.00,CLR,,0.00,WeatherDisplay:10.37,2013-08-10 22:44:00,
2013-08-10 17:49:00,81.1,60.2,29.35,North,354,3.0,3.0,49,0.00,CLR,,0.00,WeatherDisplay:10.37,2013-08-10 22:49:00,
2013-08-10 17:54:00,81.1,60.2,29.35,North,356,3.0,3.0,49,0.00,CLR,,0.00,WeatherDisplay:10.37,2013-08-10 22:54:00,
2013-08-10 17:59:00,80.8,59.8,29.35,North,358,3.0,3.0,49,0.00,CLR,,0.00,WeatherDisplay:10.37,2013-08-10 22:59:00,
2013-08-10 18:04:00,80.4,59.5,29.35,North,359,3.0,4.0,49,0.00,CLR,,0.00,WeatherDisplay:10.37,2013-08-10 23:04:00,
2013-08-10 18:09:00,80.2,59.3,29.35,North,1,3.0,4.0,49,0.00,CLR,,0.00,WeatherDisplay:10.37,2013-08-10 23:09:00,
2013-08-10 18:14:00,80.4,60.1,29.35,North,354,3.0,4.0,50,0.00,CLR,,0.00,WeatherDisplay:10.37,2013-08-10 23:14:00,
2013-08-10 18:19:00,80.4,59.5,29.35,NNW,344,3.0,4.0,49,0.00,CLR,,0.00,WeatherDisplay:10.37,2013-08-10 23:19:00,
2013-08-10 18:24:00,79.5,58.7,29.35,North,350,3.0,4.0,49,0.00,CLR,,0.00,WeatherDisplay:10.37,2013-08-10 23:24:00,
2013-08-10 18:29:00,79.3,58.5,29.35,NNW,343,3.0,4.0,49,0.00,CLR,,0.00,WeatherDisplay:10.37,2013-08-10 23:29:00,
2013-08-10 18:34:00,79.3,58.5,29.35,NNW,342,3.0,4.0,49,0.00,CLR,,0.00,WeatherDisplay:10.37,2013-08-10 23:34:00,
2013-08-10 18:39:00,79.3,58.5,29.35,NNW,345,3.0,4.0,49,0.00,CLR,,0.00,WeatherDisplay:10.37,2013-08-10 23:39:00,
2013-08-10 18:44:00,79.2,59.5,29.35,NNW,330,2.0,3.0,51,0.00,CLR,,0.00,WeatherDisplay:10.37,2013-08-10 23:44:00,
2013-08-10 18:49:00,79.0,57.6,29.35,NNW,345,2.0,3.0,48,0.00,CLR,,0.00,WeatherDisplay:10.37,2013-08-10 23:49:00,
2013-08-10 18:54:00,78.8,58.0,29.35,North,353,2.0,2.0,49,0.00,CLR,,0.00,WeatherDisplay:10.37,2013-08-10 23:54:00,
2013-08-10 18:59:00,78.6,59.5,29.35,NNW,338,1.0,2.0,52,0.00,CLR,,0.00,WeatherDisplay:10.37,2013-08-10 23:59:00,
2013-08-10 19:04:00,78.3,58.6,29.35,NNW,338,1.0,2.0,51,0.00,CLR,,0.00,WeatherDisplay:10.37,2013-08-11 00:04:00,
2013-08-10 19:09:00,78.3,58.6,29.35,NNW,341,1.0,1.0,51,0.00,CLR,,0.00,WeatherDisplay:10.37,2013-08-11 00:09:00,
2013-08-10 19:14:00,77.4,58.4,29.35,NNW,342,1.0,1.0,52,0.00,CLR,,0.00,WeatherDisplay:10.37,2013-08-11 00:14:00,
2013-08-10 19:19:00,77.4,58.4,29.35,NNW,337,1.0,1.0,52,0.00,CLR,,0.00,WeatherDisplay:10.37,2013-08-11 00:19:00,
2013-08-10 19:24:00,76.8,58.9,29.35,NW,326,1.0,1.0,54,0.00,CLR,,0.00,WeatherDisplay:10.37,2013-08-11 00:24:00,
2013-08-10 19:29:00,76.6,58.7,29.35,NNW,337,1.0,1.0,54,0.00,CLR,,0.00,WeatherDisplay:10.37,2013-08-11 00:29:00,
2013-08-10 19:34:00,76.3,58.9,29.35,North,350,0.0,1.0,55,0.00,CLR,,0.00,WeatherDisplay:10.37,2013-08-11 00:34:00,
2013-08-10 19:39:00,76.3,58.9,29.35,North,349,0.0,1.0,55,0.00,CLR,,0.00,WeatherDisplay:10.37,2013-08-11 00:39:00,
2013-08-10 19:44:00,75.7,58.4,29.35,NNW,334,0.0,0.0,55,0.00,CLR,,0.00,WeatherDisplay:10.37,2013-08-11 00:44:00,
2013-08-10 19:49:00,75.6,58.8,29.35,NW,320,0.0,0.0,56,0.00,CLR,,0.00,WeatherDisplay:10.37,2013-08-11 00:49:00,
2013-08-10 19:54:00,75.4,58.6,29.38,NW,317,0.0,0.0,56,0.00,CLR,,0.00,WeatherDisplay:10.37,2013-08-11 00:54:00,
2013-08-10 19:59:00,75.2,58.4,29.38,WNW,296,0.0,0.0,56,0.00,CLR,,0.00,WeatherDisplay:10.37,2013-08-11 00:59:00,
2013-08-10 20:04:00,74.8,59.1,29.38,WNW,293,0.0,0.0,58,0.00,CLR,,0.00,WeatherDisplay:10.37,2013-08-11 01:04:00,
2013-08-10 20:09:00,74.5,58.7,29.38,WNW,291,0.0,0.0,58,0.00,CLR,,0.00,WeatherDisplay:10.37,2013-08-11 01:09:00,
2013-08-10 20:14:00,74.1,58.9,29.38,WNW,292,0.0,0.0,59,0.00,CLR,,0.00,WeatherDisplay:10.37,2013-08-11 01:14:00,
2013-08-10 20:19:00,73.9,58.7,29.38,NW,312,0.0,0.0,59,0.00,CLR,,0.00,WeatherDisplay:10.37,2013-08-11 01:19:00,
2013-08-10 20:24:00,73.9,58.7,29.38,NNW,327,0.0,0.0,59,0.00,CLR,,0.00,WeatherDisplay:10.37,2013-08-11 01:24:00,
2013-08-10 20:29:00,73.6,58.4,29.38,NNW,327,0.0,0.0,59,0.00,CLR,,0.00,WeatherDisplay:10.37,2013-08-11 01:29:00,
2013-08-10 20:34:00,73.4,58.2,29.38,NW,320,0.0,0.0,59,0.00,CLR,,0.00,WeatherDisplay:10.37,2013-08-11 01:34:00,
2013-08-10 20:39:00,73.0,58.3,29.38,NNW,330,0.0,0.0,60,0.00,CLR,,0.00,WeatherDisplay:10.37,2013-08-11 01:39:00,
2013-08-10 20:44:00,72.9,58.6,29.38,NNW,328,0.0,0.0,61,0.00,CLR,,0.00,WeatherDisplay:10.37,2013-08-11 01:44:00,
2013-08-10 20:49:00,72.9,58.2,29.38,NW,326,0.0,0.0,60,0.00,CLR,,0.00,WeatherDisplay:10.37,2013-08-11 01:49:00,
2013-08-10 20:54:00,72.9,58.2,29.38,NNW,328,0.0,0.0,60,0.00,CLR,,0.00,WeatherDisplay:10.37,2013-08-11 01:54:00,
2013-08-10 20:59:00,72.5,57.8,29.38,NNW,340,0.0,0.0,60,0.00,CLR,,0.00,WeatherDisplay:10.37,2013-08-11 01:59:00,
2013-08-10 21:04:00,72.3,57.7,29.38,NW,325,0.0,0.0,60,0.00,CLR,,0.00,WeatherDisplay:10.37,2013-08-11 02:04:00,
2013-08-10 21:09:00,72.3,57.7,29.38,NNW,328,0.0,0.0,60,0.00,CLR,,0.00,WeatherDisplay:10.37,2013-08-11 02:09:00,
2013-08-10 21:14:00,72.3,58.1,29.38,NNW,329,0.0,0.0,61,0.00,CLR,,0.00,WeatherDisplay:10.37,2013-08-11 02:14:00,
2013-08-10 21:19:00,72.3,57.7,29.41,NNW,328,0.0,0.0,60,0.00,CLR,,0.00,WeatherDisplay:10.37,2013-08-11 02:19:00,
2013-08-10 21:24:00,72.3,57.7,29.41,NNW,329,0.0,0.0,60,0.00,CLR,,0.00,WeatherDisplay:10.37,2013-08-11 02:24:00,
2013-08-10 21:29:00,72.3,57.7,29.41,NNW,337,0.0,0.0,60,0.00,CLR,,0.00,WeatherDisplay:10.37,2013-08-11 02:29:00,
2013-08-10 21:34:00,71.8,57.1,29.41,NNW,336,0.0,0.0,60,0.00,CLR,,0.00,WeatherDisplay:10.37,2013-08-11 02:34:00,
2013-08-10 21:39:00,71.6,57.4,29.41,NNW,333,0.0,0.0,61,0.00,CLR,,0.00,WeatherDisplay:10.37,2013-08-11 02:39:00,
2013-08-10 21:44:00,71.2,57.5,29.41,NNW,331,0.0,0.0,62,0.00,CLR,,0.00,WeatherDisplay:10.37,2013-08-11 02:44:00,
2013-08-10 21:49:00,71.1,57.4,29.41,NNW,336,0.0,0.0,62,0.00,CLR,,0.00,WeatherDisplay:10.37,2013-08-11 02:49:00,
2013-08-10 21:54:00,70.9,57.7,29.41,NNW,338,0.0,0.0,63,0.00,CLR,,0.00,WeatherDisplay:10.37,2013-08-11 02:54:00,
2013-08-10 21:59:00,70.5,57.3,29.41,NNW,334,0.0,0.0,63,0.00,CLR,,0.00,WeatherDisplay:10.37,2013-08-11 02:59:00,
2013-08-10 22:04:00,69.8,57.1,29.41,NNW,334,0.0,0.0,64,0.00,CLR,,0.00,WeatherDisplay:10.37,2013-08-11 03:04:00,
2013-08-10 22:09:00,69.6,57.3,29.41,NNW,333,0.0,0.0,65,0.00,CLR,,0.00,WeatherDisplay:10.37,2013-08-11 03:09:00,
2013-08-10 22:19:00,69.1,57.2,29.41,NNW,342,0.0,0.0,66,0.00,CLR,,0.00,WeatherDisplay:10.37,2013-08-11 03:19:00,
2013-08-10 22:24:00,69.1,57.2,29.41,NNW,339,0.0,0.0,66,0.00,CLR,,0.00,WeatherDisplay:10.37,2013-08-11 03:24:00,
2013-08-10 22:29:00,68.9,57.1,29.41,NNW,330,0.0,0.0,66,0.00,CLR,,0.00,WeatherDisplay:10.37,2013-08-11 03:29:00,
2013-08-10 22:39:00,68.4,57.0,29.41,NW,325,0.0,0.0,67,0.00,CLR,,0.00,WeatherDisplay:10.37,2013-08-11 03:39:00,
2013-08-10 22:44:00,67.8,56.9,29.41,NW,324,0.0,0.0,68,0.00,CLR,,0.00,WeatherDisplay:10.37,2013-08-11 03:44:00,
2013-08-10 22:49:00,67.8,57.3,29.41,NNW,331,0.0,0.0,69,0.00,CLR,,0.00,WeatherDisplay:10.37,2013-08-11 03:49:00,
2013-08-10 22:54:00,67.8,57.3,29.41,NNW,335,0.0,0.0,69,0.00,CLR,,0.00,WeatherDisplay:10.37,2013-08-11 03:54:00,
2013-08-10 23:04:00,68.0,56.6,29.41,NNW,330,0.0,0.0,67,0.00,CLR,,0.00,WeatherDisplay:10.37,2013-08-11 04:04:00,
2013-08-10 23:09:00,68.0,56.6,29.41,NNW,332,0.0,0.0,67,0.00,CLR,,0.00,WeatherDisplay:10.37,2013-08-11 04:09:00,
2013-08-10 23:14:00,68.0,56.2,29.41,NNW,335,0.0,0.0,66,0.00,CLR,,0.00,WeatherDisplay:10.37,2013-08-11 04:14:00,
2013-08-10 23:19:00,67.8,56.5,29.41,NNW,338,0.0,0.0,67,0.00,CLR,,0.00,WeatherDisplay:10.37,2013-08-11 04:19:00,
2013-08-10 23:24:00,67.8,56.5,29.41,NNW,339,0.0,0.0,67,0.00,CLR,,0.00,WeatherDisplay:10.37,2013-08-11 04:24:00,
2013-08-10 23:29:00,67.6,56.3,29.41,NNW,337,0.0,0.0,67,0.00,CLR,,0.00,WeatherDisplay:10.37,2013-08-11 04:29:00,
2013-08-10 23:34:00,67.8,56.5,29.41,NNW,335,0.0,0.0,67,0.00,CLR,,0.00,WeatherDisplay:10.37,2013-08-11 04:34:00,
2013-08-10 23:39:00,67.6,55.9,29.41,NNW,341,0.0,0.0,66,0.00,CLR,,0.00,WeatherDisplay:10.37,2013-08-11 04:39:00,
2013-08-10 23:44:00,67.5,55.7,29.41,NNW,348,0.0,0.0,66,0.00,CLR,,0.00,WeatherDisplay:10.37,2013-08-11 04:44:00,
2013-08-10 23:49:00,67.1,55.8,29.41,North,350,0.0,0.0,67,0.00,CLR,,0.00,WeatherDisplay:10.37,2013-08-11 04:49:00,
2013-08-10 23:54:00,67.1,55.8,29.41,North,350,0.0,0.0,67,0.00,CLR,,0.00,WeatherDisplay:10.37,2013-08-11 04:54:00,
2013-08-10 23:59:00,67.1,56.2,29.41,North,350,0.0,0.0,68,0.00,CLR,,0.00,WeatherDisplay:10.37,2013-08-11 04:59:00,